This demonstration page uses our WeatherBlox Daily Observations layout. Learn more.

Left ArrowRight Arrow

39.51506, -84.39828

Hourly Observations for December 18, 2018

Temp ( °F °C ) Dew Point ( °F °C ) Humidity (%) Winds ( mph kmh ) Pressure ( in mb ) Visibility ( mi km ) Precip ( " mm )
12:15 am 00:15 Mostly Cloudy with Mist and Fog 27 -2.9 26 -3.2 98 98 Calm 30.24 1024 1 1 0.00 0.00
12:35 am 00:35 Mostly Cloudy with Freezing Fog 27 -2.9 26 -3.2 98 98 Calm 30.24 1024 1 1 0.00 0.00
12:55 am 00:55 Mostly Cloudy with Mist and Fog 26 -3.5 25 -4 96 96 Calm 30.24 1024 1 2 0.00 0.00
1:15 am 01:15 Mostly Cloudy with Mist and Fog 24 -4.4 23 -4.8 97 97 Calm 30.24 1024 1 2 0.00 0.00
1:35 am 01:35 Clear 23 -5 22 -5.5 96 96 Calm 30.24 1024 7 11 0.00 0.00
1:55 am 01:55 Clear with Mist and Fog 25 -4 24 -4.5 96 96 Calm 30.24 1024 4 6 0.00 0.00
2:15 am 02:15 Clear with Mist and Fog 26 -3.5 25 -3.9 97 97 Calm 30.24 1024 5 8 0.00 0.00
2:35 am 02:35 Clear with Mist and Fog 26 -3.6 25 -4.1 96 96 Calm 30.24 1024 3 4 0.00 0.00
2:55 am 02:55 Clear with Mist and Fog 25 -4.1 24 -4.6 96 96 Calm 30.24 1024 5 8 0.00 0.00
3:15 am 03:15 Clear 24 -4.2 24 -4.7 96 96 Calm 30.24 1024 7 11 0.00 0.00
3:35 am 03:35 Clear with Mist and Fog 26 -3.3 25 -3.7 97 97 Calm 30.24 1024 5 8 0.00 0.00
3:55 am 03:55 Clear 24 -4.2 24 -4.7 96 96 Calm 30.24 1024 10 16 0.00 0.00
4:15 am 04:15 Clear 25 -4.1 24 -4.7 96 96 Calm 30.27 1025 10 16 0.00 0.00
4:35 am 04:35 Clear with Mist and Fog 25 -3.8 24 -4.2 97 97 Calm 30.27 1025 3 5 0.00 0.00
4:55 am 04:55 Clear with Mist and Fog 25 -4.1 24 -4.6 96 96 Calm 30.27 1025 5 8 0.00 0.00
5:15 am 05:15 Clear 24 -4.4 23 -4.9 96 96 Calm 30.27 1025 7 11 0.00 0.00
5:35 am 05:35 Mostly Cloudy with Freezing Fog 26 -3.4 25 -3.8 97 97 Calm 30.27 1025 1 1 0.00 0.00
5:55 am 05:55 Clear with Mist and Fog 25 -3.8 24 -4.3 96 96 N 3 6 30.27 1025 7 11 0.00 0.00
6:15 am 06:15 Clear with Mist and Fog 24 -4.2 24 -4.7 96 96 Calm 30.27 1025 5 8 0.00 0.00
6:35 am 06:35 Clear with Mist and Fog 25 -3.8 24 -4.3 96 96 Calm 30.27 1025 5 8 0.00 0.00
6:55 am 06:55 Clear 25 -3.8 24 -4.3 96 96 N 3 6 30.30 1026 7 11 0.00 0.00
7:15 am 07:15 Clear 24 -4.7 23 -5.2 96 96 Calm 30.30 1026 7 11 0.00 0.00
7:35 am 07:35 Clear 26 -3.5 25 -4 96 96 N 3 6 30.30 1026 10 16 0.00 0.00
7:55 am 07:55 Sunny 25 -3.7 24 -4.2 96 96 Calm 30.30 1026 7 11 0.00 0.00
8:15 am 08:15 Sunny with Mist and Fog 25 -3.9 24 -4.3 97 97 Calm 30.30 1026 5 8 0.00 0.00
8:35 am 08:35 Sunny with Mist and Fog 25 -3.8 24 -4.3 96 96 Calm 30.30 1026 7 11 0.00 0.00
8:55 am 08:55 Sunny 27 -2.6 27 -3 97 97 Calm 30.30 1026 7 11 0.00 0.00
9:15 am 09:15 Sunny 29 -1.9 28 -2.2 98 98 Calm 30.30 1026 10 16 0.00 0.00
9:35 am 09:35 Sunny 30 -1.3 29 -1.6 98 98 ENE 3 6 30.33 1027 10 16 0.00 0.00
9:55 am 09:55 Sunny 30 -1 29 -1.5 96 96 ENE 3 6 30.30 1026 10 16 0.00 0.00
10:15 am 10:15 Sunny 31 -0.3 29 -1.5 92 92 Calm 30.30 1026 10 16 0.00 0.00
10:35 am 10:35 Sunny 33 0.3 29 -1.5 88 88 Calm 30.30 1026 10 16 0.00 0.00
10:55 am 10:55 Sunny 34 1.3 30 -1.2 84 84 Calm 30.30 1026 10 16 0.00 0.00
11:15 am 11:15 Sunny 36 2.3 30 -1 79 79 Calm 30.30 1026 10 16 0.00 0.00
11:35 am 11:35 Sunny 38 3.4 29 -1.6 70 70 SSE 3 6 30.30 1026 10 16 0.00 0.00
11:55 am 11:55 Sunny 39 4 29 -1.4 68 68 S 3 6 30.30 1026 10 16 0.00 0.00
12:15 pm 12:15 Sunny 40 4.2 28 -2.3 63 63 S 5 7 30.27 1025 10 16 0.00 0.00
12:35 pm 12:35 Sunny 40 4.7 28 -2 62 62 SW 5 7 30.27 1025 10 16 0.00 0.00
12:55 pm 12:55 Sunny 41 4.8 29 -1.8 63 63 Calm 30.27 1025 10 16 0.00 0.00
1:15 pm 13:15 Sunny 41 4.9 28 -2 61 61 Calm 30.24 1024 10 16 0.00 0.00
1:35 pm 13:35 Sunny 42 5.6 29 -1.6 60 60 S 3 6 30.21 1023 10 16 0.00 0.00
1:55 pm 13:55 Sunny 42 5.5 29 -1.7 60 60 SW 5 7 30.21 1023 10 16 0.00 0.00
2:15 pm 14:15 Sunny 43 5.9 29 -1.9 58 58 SW 6 9 30.21 1023 10 16 0.00 0.00
2:35 pm 14:35 Sunny 43 6.2 29 -1.9 56 56 SW 6 9 30.21 1023 10 16 0.00 0.00
2:55 pm 14:55 Sunny 43 6.2 28 -2 56 56 Calm 30.21 1023 10 16 0.00 0.00
3:15 pm 15:15 Sunny 43 6.3 29 -1.9 56 56 Calm 30.18 1022 10 16 0.00 0.00
3:35 pm 15:35 Sunny 43 6 28 -2.1 56 56 NE 3 6 30.18 1022 10 16 0.00 0.00
3:55 pm 15:55 Sunny 43 6 29 -1.9 57 57 NE 3 6 30.18 1022 10 16 0.00 0.00
4:15 pm 16:15 Sunny 42 5.4 29 -1.7 61 61 ENE 6 9 30.18 1022 10 16 0.00 0.00
4:35 pm 16:35 Sunny 41 4.9 28 -2.4 60 60 ENE 3 6 30.21 1023 10 16 0.00 0.00
4:55 pm 16:55 Sunny 40 4.2 27 -3 60 60 E 5 7 30.21 1023 10 16 0.00 0.00
5:15 pm 17:15 Sunny 39 3.8 27 -2.9 62 62 Calm 30.21 1023 10 16 0.00 0.00
5:35 pm 17:35 Clear 37 2.5 26 -3.4 65 65 Calm 30.21 1023 10 16 0.00 0.00
5:55 pm 17:55 Clear 35 1.4 30 -1 84 84 Calm 30.21 1023 10 16 0.00 0.00
6:15 pm 18:15 Clear 30 -0.9 27 -2.8 87 87 Calm 30.21 1023 10 16 0.00 0.00
6:35 pm 18:35 Clear 32 -0.1 29 -1.7 89 89 Calm 30.21 1023 10 16 0.00 0.00
6:55 pm 18:55 Clear 30 -1 28 -2 93 93 Calm 30.21 1023 10 16 0.00 0.00
7:15 pm 19:15 Clear 31 -0.8 28 -2.4 89 89 Calm 30.21 1023 10 16 0.00 0.00
7:35 pm 19:35 Clear 30 -1.2 27 -2.7 90 90 Calm 30.21 1023 10 16 0.00 0.00
7:55 pm 19:55 Clear 29 -1.7 27 -2.8 92 92 Calm 30.21 1023 10 16 0.00 0.00
8:15 pm 20:15 Clear 29 -1.7 27 -2.8 92 92 Calm 30.21 1023 10 16 0.00 0.00
8:35 pm 20:35 Clear 28 -2.1 26 -3.1 93 93 Calm 30.21 1023 10 16 0.00 0.00
8:55 pm 20:55 Clear 28 -2.4 26 -3.3 94 94 Calm 30.21 1023 10 16 0.00 0.00
9:15 pm 21:15 Clear 28 -2.4 26 -3.3 94 94 NNE 3 6 30.21 1023 10 16 0.00 0.00
9:35 pm 21:35 Clear 27 -2.6 26 -3.4 94 94 Calm 30.21 1023 10 16 0.00 0.00
9:55 pm 21:55 Clear 27 -3 26 -3.6 96 96 Calm 30.21 1023 10 16 0.00 0.00
10:15 pm 22:15 Clear 27 -2.9 26 -3.5 96 96 Calm 30.18 1022 10 16 0.00 0.00
10:35 pm 22:35 Clear 27 -2.8 26 -3.5 95 95 Calm 30.18 1022 10 16 0.00 0.00
10:55 pm 22:55 Clear 27 -2.8 26 -3.5 95 95 NNE 3 6 30.18 1022 7 11 0.00 0.00
11:15 pm 23:15 Clear 26 -3.3 25 -3.9 96 96 Calm 30.18 1022 7 11 0.00 0.00
11:35 pm 23:35 Clear with Mist and Fog 26 -3.6 25 -4 97 97 Calm 30.15 1021 5 8 0.00 0.00
11:55 pm 23:55 Clear with Mist and Fog 26 -3.3 25 -3.7 97 97 Calm 30.15 1021 5 8 0.00 0.00

Powered by AerisWeather